Wind_Speed
32 28 24 24 24 25 27 27 26 23 24 27 29 28 25 25 24 23 23 22 21 19 18 17 16 16 16 16 16 17 16 15 15 15 15 14 14 14 14 13 13 14 13 13
33 30 28 26 25 24 25 26 26 26 26 28 30 28 26 26 25 25 24 23 22 21 19 18 18 17 17 17 17 17 17 16 16 16 16 15 15 16 15 15 15 15 15 15
34 32 30 30 28 26 26 25 26 27 29 30 30 28 26 26 26 25 24 23 23 22 21 20 19 18 18 18 19 18 18 17 17 18 17 17 16 17 17 17 17 16 16 16
32 30 31 31 28 28 27 28 29 28 29 28 30 29 28 27 26 25 24 23 22 22 21 20 20 20 19 19 19 20 19 19 19 19 18 18 18 18 18 18 18 18 17 17
32 30 31 30 30 29 29 30 30 29 30 31 28 27 28 27 26 27 26 25 23 21 20 21 21 20 20 21 21 21 21 21 21 20 19 19 19 19 20 19 19 19 19 19
33 31 30 30 29 29 29 31 30 31 31 31 29 28 28 27 27 27 27 26 25 25 24 23 23 22 22 23 23 22 22 22 21 21 21 20 20 20 21 21 20 20 20 19
33 31 29 29 29 30 31 31 31 31 31 32 31 30 31 29 28 27 28 28 28 26 25 25 25 25 25 24 24 23 23 23 22 22 21 21 21 22 21 22 21 20 20 20
34 32 32 32 31 31 31 32 31 30 31 32 31 31 31 30 28 28 28 28 28 27 27 26 26 26 26 25 25 24 24 24 23 23 23 23 23 22 22 21 21 21 21 21
34 34 34 34 33 32 31 30 31 31 31 31 31 31 31 32 30 29 28 28 28 28 28 27 27 26 26 26 26 25 24 24 23 24 23 23 23 22 22 22 22 22 22 21
35 38 36 35 34 32 32 31 30 31 32 31 30 30 31 31 31 30 30 30 30 30 29 28 27 27 26 26 26 25 25 25 24 24 23 23 23 23 22 22 23 23 22 22
37 37 36 37 35 34 34 34 33 33 32 31 31 30 29 29 30 30 31 30 29 29 29 28 28 27 27 27 27 27 26 25 25 24 24 24 24 23 24 24 24 24 24 24
39 38 38 38 37 35 35 35 34 34 33 33 33 32 32 31 31 32 32 31 30 29 29 29 28 26 27 27 27 27 27 27 26 26 25 25 25 25 25 24 24 25 25 25
36 36 37 37 37 38 38 37 36 35 35 35 34 33 33 32 32 32 32 32 32 31 30 30 28 27 28 28 28 29 29 29 28 28 27 26 26 26 25 25 25 25 25 25
35 35 34 34 35 36 37 37 37 37 36 35 35 34 34 33 33 32 32 32 32 32 32 32 31 30 29 29 29 30 30 30 30 29 28 28 27 27 26 26 25 25 25 26
35 35 36 37 37 36 36 36 36 35 35 36 35 35 35 34 34 34 33 33 33 34 34 33 33 32 31 31 31 31 31 31 30 30 30 30 29 29 28 27 27 26 26 26
35 35 36 37 37 37 36 36 36 35 35 35 35 35 35 35 35 35 35 34 34 35 35 35 34 34 33 32 32 32 32 32 32 32 32 31 31 30 29 28 27 27 27 27
35 34 33 34 36 37 37 37 37 37 36 36 36 35 35 36 36 35 35 35 35 35 35 35 35 35 35 34 33 33 33 33 33 32 31 31 31 30 30 29 29 28 28 28
33 33 34 34 35 36 36 37 37 37 37 36 36 36 35 36 36 36 36 36 35 35 36 36 36 36 36 35 34 33 33 33 32 32 31 31 31 31 30 30 29 29 29 29
33 32 33 33 33 34 34 35 36 36 37 37 36 35 35 35 36 36 37 37 37 37 36 36 36 36 35 35 34 34 33 33 32 31 31 31 31 31 31 30 29 29 29 29
32 33 32 32 32 33 33 33 34 35 34 35 35 35 35 35 36 36 37 36 36 36 36 35 36 35 35 34 34 33 33 32 32 32 32 31 31 31 31 30 29 29 29 29
31 31 31 30 31 31 32 32 33 34 35 35 35 35 34 34 35 35 35 35 35 35 35 35 35 35 34 34 33 33 33 32 31 31 32 31 31 31 30 29 29 29 29 30
29 29 29 29 29 30 30 31 32 33 34 34 35 34 34 34 34 34 34 34 34 34 34 34 34 34 33 33 33 32 32 32 32 32 31 31 31 30 30 29 28 29 29 30
27 28 29 29 29 29 29 30 31 32 33 33 33 33 33 34 34 34 33 33 33 33 33 34 34 33 33 33 32 32 32 32 32 31 31 30 29 29 28 28 28 28 29 29
26 27 28 28 28 29 29 29 30 29 28 29 30 31 32 32 32 32 33 33 32 32 31 31 30 30 31 31 31 32 32 31 30 30 30 29 29 28 27 27 27 28 28 29
24 26 26 26 27 27 27 27 27 27 27 28 28 29 29 29 29 30 30 30 30 30 29 28 28 29 29 30 30 30 30 30 29 29 28 28 27 27 28 28 28 29 29 30
22 23 24 25 25 25 25 26 27 26 26 26 26 26 27 27 27 28 27 27 28 28 28 27 27 26 26 27 27 28 28 27 27 27 27 27 28 28 28 28 29 29 29 30
20 21 22 22 22 23 23 24 25 25 25 25 25 24 25 26 26 26 26 26 26 26 25 26 26 26 25 25 25 25 26 26 26 27 27 28 28 28 28 28 29 29 29 29
Wind_Direction
220 220 226 237 240 234 231 231 231 235 242 249 257 258 258 259 261 263 267 270 271 273 276 278 281 284 289 293 296 298 300 304 306 308 310 311 309 309 311 311 313 316 312 308
222 222 224 226 231 234 235 233 232 232 236 241 249 256 256 255 258 260 262 266 267 268 270 273 276 280 284 288 293 295 296 298 300 303 305 306 307 307 306 306 308 309 309 307
224 224 225 227 228 230 232 234 235 235 238 241 244 252 257 256 256 256 260 263 262 264 266 270 273 275 278 282 286 290 294 294 293 295 298 301 303 303 304 306 305 306 305 303
224 224 228 230 232 232 230 230 232 235 239 243 247 252 256 256 255 256 260 261 259 260 260 266 269 273 275 279 284 289 292 292 291 290 292 295 298 300 300 302 302 302 302 300
223 226 230 229 231 230 228 229 230 231 235 241 242 246 251 254 255 256 256 257 258 259 261 264 267 271 275 278 283 287 290 290 289 288 288 291 294 297 298 299 299 298 297 298
222 222 226 229 231 233 233 233 232 232 236 240 241 242 248 251 254 256 255 255 257 259 262 265 267 270 274 278 281 284 286 287 285 284 285 287 291 295 295 296 297 297 296 296
221 222 226 228 228 230 233 235 235 234 237 241 244 247 248 250 253 255 255 255 255 257 260 262 265 269 271 275 278 281 282 283 280 280 282 285 288 290 291 292 293 294 294 294
221 220 225 228 229 230 233 235 235 236 239 243 245 247 249 250 253 253 253 253 254 257 261 262 265 267 269 272 274 277 278 278 277 277 281 284 286 287 288 290 291 293 292 292
219 220 225 228 233 235 237 239 238 239 243 246 246 247 249 250 252 252 253 255 257 258 261 263 265 267 268 270 272 274 276 277 278 279 281 284 287 288 288 289 291 292 292 290
223 224 226 230 233 236 238 239 237 241 245 246 246 247 248 250 250 250 251 255 258 259 259 261 264 266 268 271 272 275 277 277 278 280 281 283 285 288 288 290 291 290 289 289
225 225 224 230 233 235 237 239 240 242 245 247 249 250 251 251 250 250 251 253 255 258 259 261 262 263 265 268 270 273 275 276 278 280 281 282 284 286 288 290 291 291 290 290
226 227 229 232 235 236 239 240 241 243 245 247 248 250 252 252 251 251 252 252 255 258 261 263 264 265 265 267 269 271 274 275 277 278 280 282 284 285 287 289 290 290 291 291
229 232 234 235 236 238 239 241 241 243 245 246 248 249 251 252 252 252 253 254 256 258 259 261 262 263 264 266 268 270 274 276 277 279 281 282 282 283 285 286 287 288 289 290
231 231 234 237 238 239 240 242 243 245 246 247 249 249 250 251 252 252 253 254 256 259 260 262 263 264 265 266 269 271 273 275 276 278 281 282 282 283 283 284 286 286 288 289
236 235 236 240 241 243 245 246 246 247 246 248 249 249 250 251 252 253 254 254 256 258 260 262 263 266 267 267 267 269 272 274 275 276 279 281 281 281 281 282 282 283 285 287
242 240 240 242 244 245 246 247 247 248 249 249 249 250 250 251 252 254 255 255 256 257 260 261 263 265 266 268 269 270 272 274 275 276 276 277 278 279 281 281 280 281 283 284
242 242 243 244 243 244 244 245 246 247 249 249 250 251 251 251 252 253 254 256 257 258 259 260 262 263 265 268 269 270 270 272 273 275 275 275 276 277 278 279 279 280 281 282
242 243 245 245 245 245 245 245 247 248 249 250 251 252 252 252 252 253 254 255 257 258 259 261 262 263 265 265 267 269 269 270 271 272 273 274 275 276 276 277 279 280 280 281
243 245 245 246 247 247 246 246 247 248 249 250 252 251 252 253 253 254 255 256 257 257 259 261 262 263 264 265 267 268 269 268 269 271 273 274 275 275 275 276 276 278 279 279
245 246 246 246 246 246 246 245 246 247 249 250 251 252 253 253 254 254 254 255 256 258 259 261 263 264 264 264 266 268 268 268 269 271 272 273 274 275 275 275 276 277 277 278
244 245 245 245 246 246 246 245 245 247 248 250 251 252 254 254 255 255 255 255 256 258 260 261 263 263 264 265 266 266 267 267 269 271 272 274 274 275 275 275 276 277 277 278
244 244 245 246 246 247 247 246 247 248 249 250 251 253 253 254 254 254 254 255 256 259 260 261 262 263 263 264 264 265 266 267 269 270 271 273 275 275 275 275 276 277 277 279
243 243 245 247 248 248 249 248 248 249 249 250 251 252 253 254 254 255 254 255 257 258 259 259 259 259 260 262 264 266 267 268 268 268 270 272 274 274 274 275 277 278 279 281
244 244 245 245 247 247 248 250 251 251 249 250 251 252 253 254 254 255 255 255 256 257 258 259 259 259 260 261 263 265 266 267 267 267 268 270 271 272 273 275 278 280 281 283
247 246 246 246 247 247 247 247 248 250 251 252 251 251 251 253 254 254 254 255 255 256 257 258 259 262 262 261 262 263 264 265 265 264 265 268 270 272 274 277 279 281 282 283
249 248 249 249 250 249 248 248 248 250 252 253 253 252 251 252 253 253 253 254 254 255 257 258 260 262 261 261 262 262 262 263 262 263 266 269 271 273 275 277 278 280 282 284
253 250 249 249 249 250 250 250 250 251 253 255 255 254 253 252 252 252 253 252 252 253 255 257 260 262 262 262 263 262 262 262 262 263 266 268 271 273 275 277 279 281 282 284
Height
5866 5871 5874 5877 5880 5884 5887 5891 5895 5897 5898 5898 5898 5899 5901 5901 5902 5902 5903 5904 5905 5905 5905 5905 5906 5906 5905 5905 5904 5903 5902 5902 5901 5900 5899 5898 5897 5896 5895 5894 5892 5891 5890 5889
5858 5863 5867 5871 5874 5878 5882 5885 5888 5891 5892 5892 5891 5892 5894 5895 5896 5896 5897 5899 5900 5900 5901 5901 5901 5902 5902 5901 5901 5900 5900 5899 5898 5897 5897 5896 5894 5893 5892 5891 5890 5889 5887 5886
5852 5857 5860 5864 5868 5872 5876 5879 5882 5883 5884 5883 5884 5886 5888 5889 5890 5890 5891 5892 5893 5895 5896 5897 5897 5897 5897 5898 5897 5897 5896 5895 5895 5894 5893 5892 5892 5890 5889 5888 5887 5885 5884 5883
5845 5850 5853 5859 5862 5866 5869 5871 5874 5876 5876 5877 5879 5880 5882 5883 5884 5885 5886 5887 5887 5887 5889 5891 5893 5893 5893 5893 5893 5893 5892 5891 5891 5890 5890 5889 5888 5887 5886 5884 5883 5882 5881 5880
5839 5843 5847 5852 5855 5857 5861 5862 5866 5868 5869 5870 5872 5872 5875 5877 5879 5881 5881 5882 5883 5881 5884 5887 5888 5888 5888 5888 5888 5888 5887 5887 5886 5885 5885 5884 5884 5883 5881 5880 5879 5878 5877 5876
5831 5836 5840 5845 5848 5851 5855 5856 5858 5860 5862 5864 5865 5868 5869 5871 5873 5874 5875 5877 5878 5878 5880 5882 5882 5883 5883 5883 5883 5883 5882 5882 5881 5880 5880 5879 5879 5878 5877 5875 5874 5873 5872 5871
5824 5829 5833 5837 5839 5843 5848 5849 5850 5852 5855 5857 5859 5861 5864 5865 5867 5868 5869 5870 5872 5872 5874 5876 5877 5877 5877 5878 5878 5878 5877 5876 5876 5875 5875 5874 5874 5873 5872 5870 5869 5868 5867 5866
5818 5822 5828 5830 5833 5836 5838 5841 5843 5846 5848 5850 5852 5854 5856 5859 5861 5863 5864 5863 5864 5868 5869 5870 5871 5871 5872 5872 5872 5872 5871 5870 5870 5870 5869 5869 5868 5867 5866 5865 5864 5863 5862 5861
5810 5815 5819 5822 5825 5827 5830 5833 5836 5839 5841 5843 5845 5848 5849 5852 5854 5856 5857 5857 5859 5861 5863 5864 5864 5865 5866 5866 5866 5866 5865 5864 5864 5864 5864 5863 5862 5861 5860 5859 5858 5857 5856 5855
5802 5806 5811 5814 5817 5820 5823 5826 5828 5832 5834 5836 5838 5840 5842 5845 5847 5849 5851 5852 5853 5854 5856 5857 5858 5858 5859 5859 5859 5859 5859 5859 5859 5858 5858 5857 5856 5855 5854 5853 5852 5851 5850 5849
5794 5798 5803 5807 5809 5812 5816 5819 5822 5825 5827 5829 5831 5833 5835 5837 5840 5842 5844 5845 5846 5848 5848 5849 5850 5850 5852 5852 5853 5853 5852 5852 5852 5852 5851 5851 5850 5850 5848 5848 5846 5845 5844 5843
5787 5791 5795 5799 5803 5805 5808 5811 5814 5817 5820 5822 5824 5826 5828 5830 5833 5835 5837 5838 5840 5841 5842 5843 5842 5843 5844 5845 5846 5846 5846 5845 5845 5845 5845 5844 5844 5843 5842 5841 5840 5839 5838 5837
5780 5783 5787 5790 5795 5797 5800 5803 5806 5808 5811 5814 5816 5818 5820 5822 5825 5827 5829 5831 5832 5834 5835 5835 5836 5836 5837 5838 5838 5838 5838 5838 5838 5838 5838 5837 5837 5836 5835 5835 5833 5832 5831 5830
5771 5775 5779 5782 5786 5789 5792 5795 5798 5800 5803 5805 5808 5810 5812 5814 5816 5818 5820 5822 5824 5826 5827 5828 5828 5829 5829 5830 5830 5831 5830 5831 5831 5830 5830 5830 5829 5829 5828 5828 5827 5826 5824 5823
5763 5767 5770 5774 5777 5781 5783 5787 5789 5791 5793 5796 5799 5801 5803 5806 5808 5810 5812 5814 5816 5817 5818 5819 5820 5821 5821 5821 5821 5822 5822 5822 5822 5822 5822 5822 5821 5821 5820 5820 5819 5818 5817 5816
5755 5758 5762 5765 5768 5772 5775 5778 5780 5783 5785 5787 5789 5792 5794 5797 5799 5801 5803 5805 5807 5808 5809 5810 5811 5812 5812 5812 5813 5813 5813 5813 5814 5814 5814 5813 5813 5813 5812 5812 5811 5811 5810 5809
5748 5752 5754 5757 5760 5763 5766 5768 5771 5773 5776 5778 5779 5782 5785 5787 5790 5791 5793 5795 5797 5798 5799 5801 5802 5803 5803 5803 5804 5804 5805 5805 5805 5805 5805 5805 5804 5804 5804 5804 5803 5803 5802 5801
5740 5743 5746 5748 5751 5753 5756 5759 5761 5764 5766 5768 5769 5773 5775 5778 5780 5782 5784 5785 5787 5788 5790 5791 5792 5793 5794 5794 5794 5795 5795 5796 5796 5796 5796 5796 5796 5796 5795 5795 5795 5794 5793 5792
5732 5735 5737 5739 5742 5744 5746 5749 5751 5754 5756 5759 5761 5763 5765 5768 5770 5772 5774 5775 5777 5778 5780 5781 5782 5783 5784 5784 5785 5786 5786 5787 5787 5787 5787 5787 5787 5787 5786 5786 5786 5785 5785 5784
5723 5726 5728 5730 5733 5735 5737 5740 5742 5744 5746 5748 5751 5753 5756 5758 5760 5761 5763 5765 5766 5768 5770 5771 5772 5773 5774 5775 5775 5776 5777 5777 5777 5778 5778 5778 5778 5778 5777 5777 5777 5777 5776 5775
5715 5717 5719 5722 5724 5726 5728 5730 5732 5735 5737 5739 5741 5743 5745 5747 5749 5751 5753 5755 5757 5758 5759 5761 5762 5763 5764 5765 5766 5766 5767 5767 5768 5768 5768 5769 5769 5769 5768 5768 5768 5767 5767 5766
5707 5709 5712 5714 5716 5718 5720 5721 5723 5725 5727 5729 5732 5734 5735 5737 5739 5741 5743 5745 5747 5748 5749 5750 5752 5753 5754 5755 5756 5756 5757 5758 5758 5759 5759 5759 5759 5759 5759 5759 5759 5759 5758 5757
5700 5702 5704 5706 5708 5710 5712 5713 5715 5716 5718 5720 5722 5724 5726 5727 5729 5731 5733 5735 5736 5737 5739 5740 5742 5743 5744 5745 5746 5747 5747 5748 5749 5750 5750 5751 5751 5751 5751 5751 5751 5750 5750 5749
5693 5694 5697 5698 5700 5702 5704 5705 5706 5708 5709 5711 5713 5714 5716 5717 5719 5721 5723 5725 5726 5728 5729 5731 5732 5733 5734 5735 5736 5737 5738 5738 5739 5740 5741 5742 5742 5743 5743 5743 5742 5742 5741 5740
5685 5687 5689 5691 5692 5694 5695 5697 5698 5700 5701 5702 5704 5706 5707 5709 5710 5712 5713 5715 5717 5718 5720 5721 5723 5724 5724 5725 5727 5728 5728 5729 5730 5732 5733 5733 5734 5735 5735 5735 5734 5734 5733 5732
5679 5681 5682 5684 5685 5686 5688 5689 5690 5692 5693 5694 5696 5697 5698 5700 5701 5703 5705 5706 5708 5710 5712 5713 5714 5715 5716 5717 5718 5719 5720 5721 5722 5723 5725 5726 5726 5726 5727 5727 5726 5725 5725 5724
5673 5674 5676 5677 5678 5679 5681 5682 5683 5685 5686 5687 5688 5690 5691 5692 5694 5695 5697 5699 5701 5702 5704 5706 5707 5708 5708 5709 5710 5711 5712 5713 5714 5715 5717 5717 5717 5718 5718 5718 5717 5717 5716 5715